Orbital Elements at Epoch 2459200.5 (2020-Dec-17.0) TDB
Reference: JPL 16 (heliocentric ecliptic J2000)
Element | Value | Uncertainty (1-sigma) | Units |
e | .1579792501503444 | 5.0826e-08 | |
a | 3.105166170131118 | 2.111e-08 | au |
q | 2.614614346981587 | 1.6038e-07 | au |
i | 1.280210008006259 | 5.9427e-06 | deg |
node | 29.62932892878601 | 0.00021517 | deg |
peri | 119.7538225427548 | 0.00021581 | deg |
M | 57.46838377996775 | 1.4859e-05 | deg |
tp | 2458881.454826900002 (2020-Feb-01.95482690) | 8.2489e-05 | TDB |
period | 1998.59913854121 5.47 | 2.0381e-05 5.58e-08 | d yr |
n | .1801261659017657 | 1.8368e-09 | deg/d |
Q | 3.595717993280648 | 2.4445e-08 | au |
|
| | Orbit Determination Parameters
Additional Information
|